Change the Weather History Date:

Monday, November 26, 2012

  Actual Average (KLCH) Record (KLCH)
Temperature  
Mean Temperature 70 °F 58 °F  
Max Temperature 78 °F 68 °F 88 °F (1913)
Min Temperature 62 °F 48 °F 25 °F (1912)
Degree Days  
Heating Degree Days 0 8  
Month to date heating degree days 136  
Since 1 July heating degree days 172  
Cooling Degree Days 5 1  
Month to date cooling degree days 50  
Year to date cooling degree days 2783  
Growing Degree Days 20 (Base 50)    
Moisture  
Dew Point 67 °F    
Average Humidity 91    
Maximum Humidity 100    
Minimum Humidity 69    
Precipitation  
Precipitation 1.17 in 0.14 in 3.35 in (1975)
Month to date precipitation 3.85  
Year to date precipitation 52.23  
Snow  
Snow 0.00 in 0.00 in 0.00 in ()
Month to date snowfall 0.0  
Since 1 July snowfall 0.0  
Since 1 September snowfall 0.0  
Snow Depth -    
Sea Level Pressure  
Sea Level Pressure 30.02 in    
Wind  
Wind Speed 8 mph (SSE)    
Max Wind Speed 17 mph    
Max Gust Speed 28 mph    
Visibility 8 miles    
Events Fog , Rain , Thunderstorm    
T = Trace of Precipitation, MM = Missing Value Source: NWS Daily Summary

Daily Weather History Graph

Daily Weather History Graph

Search for Another Location

Airport or City:

Trip Planner

Search our weather history database for the weather conditions in past years. The results will help you decide how hot, cold, wet, or windy it might be!

Date:

Astronomy

Nov. 26, 2012 Rise Set
Actual Time 6:48 AM CST 5:13 PM CST
Civil Twilight 6:22 AM CST 5:39 PM CST
Nautical Twilight 5:53 AM CST 6:08 PM CST
Astronomical Twilight 5:24 AM CST 6:37 PM CST
Moon 4:02 PM CST (11/26) 5:03 AM CST (11/26)
Length of Visible Light 11h 16m
Length of Day
10h 25m
Waxing Gibbous, 97% of the Moon is Illuminated
Nov 26
Waxing Gibbous
Nov 28
Full
Dec 6
Last Quarter
Dec 13
New
Dec 19
First Quarter

Hourly Weather History & Observations

Time (CST) Temp. Dew Point Humidity Pressure Visibility Wind Dir Wind Speed Gust Speed Precip Events Conditions
12:15 AM 62.6 °F 60.8 °F 94% 30.02 in 10.0 mi SE 9.2 mph - N/A   Clear
12:35 AM 62.6 °F 60.8 °F 94% 30.02 in 10.0 mi SE 8.1 mph - N/A   Clear
12:55 AM 62.6 °F 60.8 °F 94% 30.01 in 10.0 mi ESE 9.2 mph - N/A   Scattered Clouds
1:15 AM 64.4 °F 62.6 °F 94% 30.01 in 10.0 mi ESE 9.2 mph - N/A   Overcast
1:35 AM 64.4 °F 62.6 °F 94% 30.01 in 10.0 mi SE 9.2 mph - N/A   Overcast
1:55 AM 64.4 °F 62.6 °F 94% 30.00 in 10.0 mi SE 9.2 mph - N/A   Mostly Cloudy
2:15 AM 64.4 °F 62.6 °F 94% 30.00 in 10.0 mi SE 10.4 mph - N/A   Overcast
2:35 AM 64.4 °F 62.6 °F 94% 30.00 in 10.0 mi SE 10.4 mph 16.1 mph N/A   Overcast
2:55 AM 64.4 °F 64.4 °F 100% 30.00 in 10.0 mi SE 10.4 mph 17.3 mph N/A   Overcast
3:15 AM 64.4 °F 64.4 °F 100% 30.00 in 10.0 mi SE 9.2 mph - N/A   Overcast
3:35 AM 66.2 °F 64.4 °F 94% 30.00 in 10.0 mi SE 10.4 mph - N/A   Overcast
3:55 AM 66.2 °F 64.4 °F 94% 29.99 in 10.0 mi SE 9.2 mph - N/A   Overcast
4:15 AM 66.2 °F 64.4 °F 94% 29.99 in 5.0 mi SE 11.5 mph - 0.04 in Rain Heavy Rain
4:35 AM 66.2 °F 64.4 °F 94% 29.99 in 7.0 mi SE 8.1 mph - 0.04 in   Overcast
4:55 AM 64.4 °F 64.4 °F 100% 29.99 in 7.0 mi SE 6.9 mph - 0.04 in   Overcast
5:15 AM 64.4 °F 64.4 °F 100% 29.99 in 7.0 mi SE 8.1 mph - N/A   Overcast
5:35 AM 66.2 °F 64.4 °F 94% 30.00 in 7.0 mi SE 6.9 mph - N/A Rain Light Rain
5:55 AM 66.2 °F 64.4 °F 94% 30.01 in 7.0 mi Calm Calm - 0.03 in   Overcast
6:15 AM 64.4 °F 64.4 °F 100% 30.01 in 7.0 mi ESE 4.6 mph - N/A   Overcast
6:35 AM 66.2 °F 64.4 °F 94% 30.01 in 7.0 mi SE 4.6 mph - N/A   Mostly Cloudy
6:55 AM 66.2 °F 64.4 °F 94% 30.02 in 7.0 mi SSE 5.8 mph - N/A   Mostly Cloudy
7:15 AM 66.2 °F 66.2 °F 100% 30.03 in 5.0 mi South 4.6 mph - 0.02 in Rain Heavy Rain
7:35 AM 68.0 °F 66.2 °F 94% 30.03 in 3.0 mi SSE 3.5 mph - 0.08 in Rain Light Rain
7:55 AM 68.0 °F 68.0 °F 100% 30.04 in 7.0 mi SE 4.6 mph - 0.08 in   Mostly Cloudy
8:15 AM 68.0 °F 66.2 °F 94% 30.04 in 5.0 mi SE 4.6 mph - N/A   Mostly Cloudy
8:35 AM 68.0 °F 68.0 °F 100% 30.06 in 1.2 mi South 4.6 mph - 0.19 in Rain Heavy Rain
8:55 AM 68.0 °F 68.0 °F 100% 30.06 in 7.0 mi SW 9.2 mph - 0.20 in Rain Light Rain
9:15 AM 66.2 °F 62.6 °F 88% 30.06 in 1.8 mi SSW 12.7 mph 20.7 mph 0.24 in Rain Heavy Rain
9:35 AM 68.0 °F 66.2 °F 94% 30.05 in 2.5 mi Calm Calm - 0.50 in Rain Light Rain
9:55 AM 68.0 °F 66.2 °F 94% 30.07 in 5.0 mi West 8.1 mph 16.1 mph 0.53 in Rain , Thunderstorm Heavy Thunderstorms and Rain
10:15 AM 69.8 °F 68.0 °F 94% 30.06 in 1.0 mi SSW 4.6 mph 27.6 mph 0.29 in Rain Light Rain
10:35 AM 69.8 °F 68.0 °F 94% 30.06 in 10.0 mi Calm Calm - 0.29 in Rain Rain
10:55 AM 71.6 °F 68.0 °F 88% 30.06 in 10.0 mi SSE 3.5 mph - 0.29 in   Mostly Cloudy
11:15 AM 73.4 °F 69.8 °F 88% 30.05 in 10.0 mi SE 4.6 mph - N/A   Mostly Cloudy
11:35 AM 75.2 °F 71.6 °F 89% 30.04 in 10.0 mi SE 6.9 mph - N/A   Overcast
11:55 AM 78.8 °F 71.6 °F 78% 30.03 in 10.0 mi South 13.8 mph 18.4 mph N/A   Overcast
12:15 PM 77.0 °F 69.8 °F 78% 30.02 in 10.0 mi SW 9.2 mph 12.7 mph N/A   Overcast
12:35 PM 78.8 °F 69.8 °F 74% 30.01 in 10.0 mi SSW 17.3 mph 23.0 mph N/A   Mostly Cloudy
12:55 PM 78.8 °F 69.8 °F 74% 30.00 in 10.0 mi South 15.0 mph 21.9 mph N/A   Scattered Clouds
1:15 PM 78.8 °F 69.8 °F 74% 29.99 in 10.0 mi South 13.8 mph 21.9 mph N/A   Scattered Clouds
1:35 PM 78.8 °F 68.0 °F 69% 29.99 in 10.0 mi South 17.3 mph 24.2 mph N/A   Scattered Clouds
1:55 PM 78.8 °F 68.0 °F 69% 29.99 in 10.0 mi SSW 17.3 mph 25.3 mph N/A   Scattered Clouds
2:15 PM 78.8 °F 68.0 °F 69% 29.99 in 10.0 mi South 16.1 mph 24.2 mph N/A   Scattered Clouds
2:35 PM 78.8 °F 69.8 °F 74% 29.99 in 10.0 mi South 16.1 mph 24.2 mph N/A   Clear
2:55 PM 78.8 °F 68.0 °F 69% 29.99 in 10.0 mi SSW 16.1 mph 23.0 mph N/A   Clear
3:15 PM 78.8 °F 69.8 °F 74% 29.99 in 10.0 mi SSW 15.0 mph 24.2 mph N/A   Clear
3:35 PM 77.0 °F 69.8 °F 78% 29.98 in 10.0 mi SSW 15.0 mph 18.4 mph N/A   Clear
3:55 PM 77.0 °F 69.8 °F 78% 29.99 in 10.0 mi SSW 12.7 mph 17.3 mph N/A   Clear
4:15 PM 75.2 °F 69.8 °F 83% 29.99 in 10.0 mi South 11.5 mph - N/A   Clear
4:35 PM 73.4 °F 69.8 °F 88% 30.00 in 10.0 mi SSW 9.2 mph - N/A   Clear
4:55 PM 73.4 °F 69.8 °F 88% 30.00 in 10.0 mi South 8.1 mph - N/A   Clear
5:15 PM 71.6 °F 68.0 °F 88% 30.01 in 10.0 mi South 6.9 mph - N/A   Clear
5:35 PM 71.6 °F 68.0 °F 88% 30.01 in 10.0 mi South 4.6 mph - N/A   Clear
5:55 PM 69.8 °F 68.0 °F 94% 30.02 in 10.0 mi SSE 5.8 mph - N/A   Clear
6:15 PM 69.8 °F 68.0 °F 94% 30.02 in 10.0 mi South 4.6 mph - N/A   Clear
6:35 PM 69.8 °F 68.0 °F 94% 30.04 in 10.0 mi South 4.6 mph - N/A   Clear
6:55 PM 68.0 °F 68.0 °F 100% 30.04 in 7.0 mi SSE 4.6 mph - N/A   Clear
7:15 PM 68.0 °F 68.0 °F 100% 30.04 in 7.0 mi SSE 3.5 mph - N/A   Clear
7:35 PM 68.0 °F 66.2 °F 94% 30.04 in 7.0 mi SSE 4.6 mph - N/A   Clear
7:55 PM 66.2 °F 66.2 °F 100% 30.05 in 5.0 mi South 4.6 mph - N/A   Clear
8:15 PM 66.2 °F 66.2 °F 100% 30.06 in 5.0 mi SSE 4.6 mph - N/A   Clear
8:35 PM 68.0 °F 66.2 °F 94% 30.06 in 7.0 mi SE 4.6 mph - N/A   Clear
8:55 PM 68.0 °F 66.2 °F 94% 30.06 in 7.0 mi SE 5.8 mph - N/A   Clear
9:15 PM 66.2 °F 66.2 °F 100% 30.06 in 5.0 mi SE 5.8 mph - N/A   Clear
9:35 PM 68.0 °F 68.0 °F 100% 30.05 in 5.0 mi SE 5.8 mph - N/A   Clear
9:55 PM 68.0 °F 68.0 °F 100% 30.06 in 5.0 mi South 5.8 mph - N/A   Clear
10:15 PM 68.0 °F 66.2 °F 94% 30.06 in 4.0 mi South 3.5 mph - N/A   Clear
10:35 PM 66.2 °F 64.4 °F 94% 30.06 in 3.0 mi SSE 4.6 mph - N/A   Clear
10:55 PM 66.2 °F 64.4 °F 94% 30.07 in 2.5 mi SSW 3.5 mph - N/A   Clear
11:15 PM 64.4 °F 64.4 °F 100% 30.07 in 0.5 mi Calm Calm - N/A Fog Fog
11:35 PM 66.2 °F 66.2 °F 100% 30.08 in 2.5 mi WSW 3.5 mph - N/A   Scattered Clouds
11:55 PM 68.0 °F 68.0 °F 100% 30.07 in 5.0 mi Calm Calm - N/A   Mostly Cloudy